This is the latest recevied weather packets stored in our database for station/object I5EKX-13. If no packets are shown the sender has not sent any weather packets the latest 10 day(s).
| Time | Temp. | Humidity | Pressure | Rain* | Wind** | Luminosity | Snow |
|---|---|---|---|---|---|---|---|
| 1777536111 | 18.89° C | 49% | 1013.9 hPa | - | - | - | - |
| 1777534907 | 20° C | 52% | 1013.9 hPa | - | - | - | - |
| 1777533703 | 18.33° C | 55% | 1013.6 hPa | - | - | - | - |
| 1777532499 | 18.33° C | 57% | 1013.4 hPa | - | - | - | - |
| 1777531295 | 17.78° C | 60% | 1013.3 hPa | - | - | - | - |
| 1777530091 | 17.78° C | 61% | 1013.1 hPa | - | - | - | - |
| 1777528887 | 16.67° C | 64% | 1013 hPa | - | - | - | - |
| 1777527682 | 16.67° C | 65% | 1012.8 hPa | - | - | - | - |
| 1777526478 | 16.67° C | 65% | 1012.7 hPa | - | - | - | - |
| 1777525275 | 16.11° C | 67% | 1012.4 hPa | - | - | - | - |
| 1777524070 | 16.11° C | 67% | 1012.3 hPa | - | - | - | - |
| 1777522867 | 16.11° C | 66% | 1012.3 hPa | - | - | - | - |
| 1777521663 | 16.11° C | 68% | 1012.2 hPa | - | - | - | - |
| 1777520459 | 16.11° C | 66% | 1011.9 hPa | - | - | - | - |
| 1777519255 | 16.67° C | 65% | 1011.9 hPa | - | - | - | - |
| 1777518051 | 16.67° C | 64% | 1011.7 hPa | - | - | - | - |
| 1777516847 | 16.67° C | 64% | 1011.6 hPa | - | - | - | - |
| 1777515643 | 16.67° C | 64% | 1011.6 hPa | - | - | - | - |
| 1777514439 | 17.22° C | 63% | 1011.5 hPa | - | - | - | - |
| 1777513235 | 16.67° C | 64% | 1011.3 hPa | - | - | - | - |
| 1777512031 | 16.67° C | 64% | 1011.2 hPa | - | - | - | - |
| 1777510827 | 16.67° C | 66% | 1011.1 hPa | - | - | - | - |
| 1777509623 | 16.67° C | 65% | 1011.3 hPa | - | - | - | - |
| 1777508420 | 16.67° C | 65% | 1011.3 hPa | - | - | - | - |
| 1777507215 | 16.67° C | 66% | 1011.3 hPa | - | - | - | - |
* Rain since midnight (hover to see other rain measurements)
** Current wind speed in m/s (hover to see current wind gust speed)